sat.trackr.live / text

‹ back to catalog

STARLINK-11620 [DTC]

NORAD 63271 · 2025-053G

PAYLOAD ACTIVE UNKNOWN

§ Identity

Operator
Country
US
Launch date
2025-03-15
Launch site
AFETR
Launch vehicle
Mass (kg)
RCS (m²)

Purposes: comms

External: N2YO · Heavens-Above · Gunter

§ Orbital elements

Epoch: 2026-09-20T15:04:02.990496Z

Period
91.67 min
Inclination
43.0001°
Eccentricity
0.0002154
Mean motion
15.70901105 rev/d
Perigee alt
354.9 km
Apogee alt
357.8 km
Semi-major
6,734.5 km
B*
1.4675e-3
RAAN
17.6157°
Arg perigee
331.0459°
Mean anomaly
29.0289°
Rev number
8,832

§ Raw data

STARLINK-11620 [DTC]1 63271U 25053G   26263.62781239  .00192788  00000+0  14675-2 0  99902 63271  43.0001  17.6157 0002154 331.0459  29.0289 15.70901105 88323

JSON: /api/v1/satellites/63271 · /tle

For live sub-satellite position, see the globe view (requires WebGL).

§ Visibility from observer

Set your observer location to see the next 7 days of passes ≥ 10°. The values pass through the URL so the page stays shareable.

No JS? Fill the form by hand. The geolocation button needs JavaScript.